COSMOS 2251 DEB, 35717

Orbit data source: Space-Track

COSMOS 2251 DEB, 35717 is space debris in LEO originally from a launch on Wed, 16 Jun 1993 UTC launched from the Plesetsk Missile And Space Complex (PKMTR). The debris from Iridium 33, an American commercial communications satellite, has been tracked extensively since its accidental collision with the defunct Russian satellite Cosmos 2251 in 2009. This event, occurring at high speed in low Earth orbit (LEO), generated thousands of pieces of space debris, significantly increasing the risk of further collisions. The Iridium 33 debris cloud has impacted space traffic management and orbital debris mitigation strategies, making it a subject of ongoing study in space situational awareness.

Loading next visibility...
Identifier
35717, 1993-036AQN
Orbit
LEO
Country
Flag of CISCIS
Related business
Manufacturer
Unknown
Mission
Spacecraft
Bus & Motor
Unknown
Mass
Unknown
Launch date (UTC)
1993-06-16 (33 years ago)
Launch vehicle
Unknown
Launch site
Plesetsk Missile And Space Complex (PKMTR)
Object type
Payload
Rocket body
Debris
Shape & HBR
Unknown shape, 0.1 m
Radar Cross Section
Small (<0.1 m²)

Expand to show TLE details & history
Last TLE update: 4 days ago

TLE from 4 days ago
0 COSMOS 2251 DEB
1 35717U 93036AQN 26118.85998245  .00003552  00000-0  11043-2 0  9998
2 35717  74.1608 326.4002 0078796 146.2427 214.3782 14.39565964760722
Epoch: 2026-04-28T20:38Z
TLE epoch observation values (Epoch: 2026-04-28T20:38:22.483Z)
Latitude
-0.00011°
Longitude
159.97725°
Altitude
809.124 km
Speed
7.425 km/s
True Right ascension
21h 45m 36s
True Declination
0° 00' 00"
Sunlit
Object was in daylight at epoch
Visualization orbit readout
Latitude
Unknown
Longitude
Unknown
Altitude
Unknown
Speed
Unknown
Apparent Right ascension
Unknown
Apparent Declination
Unknown
Sunlit
N/A
Visualization observer readout
Local Sidereal Time
19:51:56
Azimuth
Unknown
Elevation
Unknown
Doppler factor
Unknown
Orbital elements
Apogee altitude
813.768 km
Perigee altitude
701.316 km
Semi-major axis
7,135.679 km
Eccentricity
0.00788
Inclination
74.1608°
RAAN
326.4002°
Arg. of periapsis
146.2427°
True anomaly
213.87247°
Mean anomaly
214.3782°
Eccentric anomaly
214.12493°
Mean motion
3.60073 °/min
Orbital period
99.98 mins
BSTAR
0.0011043
Loading maneuver chart data...
Computing Atmospheric mass density...
Loading historical data...
Loading historical data...
Loading historical data...
Loading historical data...
Loading historical data...
Loading historical data...
Loading historical data...

Documentation

Showing up to 5 results
|